METAR Formatted Surface Weather Observation
Issued by NWS

Current Version | Previous Version | Text Only | Print | Product List | Glossary On
Versions: 1 2 3 4 5 6 7 8 9 10 11 12 13 14 15 16 17 18 19 20 21 22 23 24 25 26 27 28 29 30 31 32 33 34 35 36 37 38 39 40 41 42 43 44 45 46 47 48 49 50
000
SAUS45 KABQ 302354
MTRCQC
METAR KCQC 302353Z AUTO 17010KT 3SM +RA BKN070 OVC080 15/12 A3043
RMK AO2 PK WND 16037/2308 SLP233 P0047 60096 T01500122 10244 20150
50000



USA.gov is the U.S. government's official web portal to all federal, state and local government web resources and services.